STARLINK-31272, 59162

Orbit data source: Space-Track

STARLINK-31272, 59162 is a payload satellite owned by SpaceX/Seattle (US) in LEO that was launched on Mon, 04 Mar 2024 UTC via an FALCON 9 launch vehicle from the Air Force Eastern Test Range (AFETR). Payload-class satellites include a variety of spacecraft equipped with specific instruments for various scientific and technological missions. These include communications satellites like Starlink; space stations such as the ISS; scientific satellites like the Hubble; Earth observation satellites from companies like Planet Labs, Umbra, and HawkEye 360; GPS; miniature CubeSats for education and research; and military/defense satellites.

Loading next visibility...
Identifier
59162, 2024-044L
Orbit
LEO
Country
Flag of USUS
Related business
Manufacturer
SpaceX/Seattle
Mission
Operational Commercial Communications
Bus & Motor
STARLINK V2M, Unknown motor
Mass
730 kg wet, ~700 kg dry
Launch date (UTC)
2024-03-04 (2 years ago)
Launch vehicle
FALCON 9
Launch site
Air Force Eastern Test Range (AFETR)
Object type
Payload
Rocket body
Debris
Shape & HBR
Box + 2 Pan, 14.5 m
Radar Cross Section
33.884 m², Large (>1 m²)

Expand to show TLE details & history
Last TLE update: 10 hours ago

TLE from 10 hours ago
0 STARLINK-31272
1 59162U 24044L   25251.16417110 -.00002756  00000-0 -90639-4 0  9996
2 59162  43.0004  57.5824 0001589 270.0389  90.0281 15.27581753 85657
Epoch: 2025-09-08T03:56Z
TLE epoch observation values (Epoch: 2025-09-08T03:56:24.383Z)
Latitude
0.00003°
Longitude
11.00761°
Altitude
482.82 km
Speed
7.626 km/s
True Right ascension
03h 50m 19s
True Declination
0° 00' 00"
Sunlit
Object was in daylight at epoch
Visualization orbit readout
Latitude
Unknown
Longitude
Unknown
Altitude
Unknown
Speed
Unknown
Apparent Right ascension
Unknown
Apparent Declination
Unknown
Sunlit
N/A
Visualization observer readout
Local Sidereal Time
06:21:25
Azimuth
Unknown
Elevation
Unknown
Doppler factor
Unknown
Orbital elements
Apogee altitude
486.08 km
Perigee altitude
483.898 km
Semi-major axis
6,863.126 km
Eccentricity
0.00016
Inclination
43.0004°
RAAN
57.5824°
Arg. of periapsis
270.0389°
True anomaly
90.04631°
Mean anomaly
90.0281°
Eccentric anomaly
90.0372°
Mean motion
3.81733 °/min
Orbital period
94.31 mins
BSTAR
-0.000090639
Loading maneuver chart data...
Computing Atmospheric mass density...
Loading historical data...
Loading historical data...
Loading historical data...
Loading historical data...
Loading historical data...
Loading historical data...
Loading historical data...

Documentation

Showing up to 5 results
|